When you browse on this site, cookies collect data to enhance your experience and personalize the content and advertising you see.
Visit our Privacy Policy to learn more. By continuing to use the site, you agree to this use of cookies and data.
  • In France
  • List of Countries
  • For 7 days
  • Water Temperature
  • Satellite Maps
  • Weather Map
  • Weather Widgets
  • user-avatar
    Login

    Hourly Weather Mervino

    Today, 19 February, Tuesday

    Time Temperature Precipitation Wind Pressure Humidity
    00:00 -7°C° 0 mm 2 mps 749 mmHg 87%
    01:00 -8°C° 0 mm 3 mps 749 mmHg 87%
    02:00 -8°C° 0 mm 2 mps 749 mmHg 86%
    03:00 -9°C° 0 mm 3 mps 748 mmHg 86%
    04:00 -9°C° 0 mm 3 mps 748 mmHg 85%
    05:00 -10°C° 0 mm 4 mps 747 mmHg 84%
    06:00 -10°C° 0 mm 4 mps 747 mmHg 84%
    07:00 -9°C° 0 mm 4 mps 747 mmHg 84%
    08:00 -9°C° 0 mm 4 mps 746 mmHg 84%
    09:00 -7°C° 0 mm 5 mps 746 mmHg 83%
    10:00 -6°C° 0 mm 5 mps 745 mmHg 81%
    11:00 -4°C° 0 mm 5 mps 745 mmHg 80%
    12:00 -4°C° 0 mm 5 mps 744 mmHg 82%
    13:00 -2°C° 0 mm 5 mps 743 mmHg 84%
    14:00 -2°C° 0 mm 6 mps 743 mmHg 86%
    15:00 -3°C° 0 mm 6 mps 742 mmHg 86%
    16:00 -3°C° 0 mm 6 mps 741 mmHg 87%
    17:00 -3°C° 0 mm 6 mps 741 mmHg 88%
    18:00 -3°C° 0 mm 6 mps 740 mmHg 88%
    19:00 -3°C° 0 mm 6 mps 740 mmHg 89%
    20:00 -3°C° 0 mm 6 mps 739 mmHg 90%
    21:00 -3°C° 0 mm 6 mps 738 mmHg 91%
    22:00 -2°C° 0 mm 6 mps 738 mmHg 93%
    23:00 -2°C° 0 mm 6 mps 737 mmHg 94%

    Tomorrow, 20 February, Wednesday

    Time Temperature Precipitation Wind Pressure Humidity
    00:00 -1°C° 0 mm 5 mps 736 mmHg 94%
    01:00 -1°C° 0 mm 5 mps 736 mmHg 93%
    02:00 -1°C° 0 mm 5 mps 736 mmHg 92%
    03:00 -1°C° 0.2 mm 5 mps 735 mmHg 93%
    04:00 -1°C° 0.2 mm 5 mps 735 mmHg 94%
    05:00 -1°C° 0.2 mm 5 mps 735 mmHg 94%
    06:00 -1°C° 0 mm 4 mps 735 mmHg 94%
    07:00 -1°C° 0 mm 4 mps 734 mmHg 95%
    08:00 -1°C° 0 mm 4 mps 734 mmHg 95%
    09:00 -1°C° 0.1 mm 5 mps 734 mmHg 96%
    10:00 -1°C° 0.1 mm 5 mps 734 mmHg 97%
    11:00 0°C° 0.1 mm 5 mps 734 mmHg 98%
    12:00 0°C° 0.1 mm 5 mps 734 mmHg 97%
    13:00 0°C° 0.1 mm 5 mps 734 mmHg 96%
    14:00 0°C° 0.1 mm 5 mps 734 mmHg 95%
    15:00 0°C° 0.1 mm 5 mps 734 mmHg 93%
    16:00 0°C° 0.1 mm 5 mps 733 mmHg 92%
    17:00 0°C° 0.1 mm 5 mps 733 mmHg 90%
    18:00 -1°C° 0.4 mm 6 mps 733 mmHg 90%
    19:00 -1°C° 0.4 mm 6 mps 733 mmHg 90%
    20:00 -2°C° 0.4 mm 6 mps 733 mmHg 90%
    21:00 -3°C° 0.1 mm 6 mps 733 mmHg 87%
    22:00 -5°C° 0.1 mm 6 mps 733 mmHg 84%
    23:00 -6°C° 0.1 mm 5 mps 733 mmHg 80%

    Day after tomorrow, 21 February, Thursday

    Time Temperature Precipitation Wind Pressure Humidity
    00:00 -6°C° 0.2 mm 6 mps 734 mmHg 82%
    01:00 -6°C° 0.2 mm 7 mps 734 mmHg 83%
    02:00 -6°C° 0.2 mm 7 mps 735 mmHg 85%
    03:00 -6°C° 0.1 mm 7 mps 735 mmHg 84%
    04:00 -6°C° 0.1 mm 7 mps 735 mmHg 82%
    05:00 -7°C° 0.1 mm 7 mps 736 mmHg 81%
    06:00 -7°C° 0.1 mm 7 mps 736 mmHg 80%
    07:00 -8°C° 0.1 mm 7 mps 737 mmHg 78%
    08:00 -8°C° 0.1 mm 7 mps 737 mmHg 77%
    09:00 -8°C° 0.1 mm 7 mps 738 mmHg 75%
    10:00 -8°C° 0.1 mm 7 mps 738 mmHg 74%
    11:00 -9°C° 0.1 mm 7 mps 739 mmHg 72%
    12:00 -8°C° 0 mm 7 mps 739 mmHg 72%
    13:00 -8°C° 0 mm 7 mps 740 mmHg 72%
    14:00 -7°C° 0 mm 7 mps 740 mmHg 73%
    15:00 -8°C° 0 mm 7 mps 741 mmHg 74%
    16:00 -8°C° 0 mm 6 mps 741 mmHg 74%
    17:00 -9°C° 0 mm 6 mps 742 mmHg 75%
    18:00 -9°C° 0 mm 6 mps 742 mmHg 76%
    19:00 -10°C° 0 mm 6 mps 743 mmHg 77%
    20:00 -10°C° 0 mm 6 mps 744 mmHg 77%
    21:00 -11°C° 0 mm 6 mps 744 mmHg 77%
    22:00 -12°C° 0 mm 5 mps 745 mmHg 78%
    23:00 -12°C° 0 mm 5 mps 745 mmHg 78%

    22 February, Friday

    Time Temperature Precipitation Wind Pressure Humidity
    00:00 -13°C° 0 mm 5 mps 746 mmHg 78%
    01:00 -13°C° 0 mm 5 mps 747 mmHg 78%
    02:00 -13°C° 0 mm 5 mps 747 mmHg 78%
    03:00 -14°C° 0 mm 5 mps 748 mmHg 78%
    04:00 -14°C° 0 mm 5 mps 749 mmHg 78%
    05:00 -14°C° 0 mm 5 mps 749 mmHg 78%
    06:00 -14°C° 0 mm 5 mps 750 mmHg 77%
    07:00 -14°C° 0 mm 5 mps 751 mmHg 76%
    08:00 -15°C° 0 mm 6 mps 751 mmHg 75%
    09:00 -14°C° 0 mm 6 mps 752 mmHg 74%
    10:00 -12°C° 0 mm 6 mps 752 mmHg 73%
    11:00 -11°C° 0 mm 6 mps 752 mmHg 72%
    12:00 -11°C° 0 mm 6 mps 752 mmHg 70%
    13:00 -10°C° 0 mm 6 mps 752 mmHg 67%
    14:00 -9°C° 0 mm 7 mps 752 mmHg 65%
    15:00 -10°C° 0 mm 6 mps 752 mmHg 68%
    16:00 -10°C° 0 mm 6 mps 752 mmHg 70%
    17:00 -11°C° 0 mm 5 mps 752 mmHg 73%
    18:00 -11°C° 0 mm 6 mps 752 mmHg 75%
    19:00 -12°C° 0 mm 6 mps 753 mmHg 76%
    20:00 -12°C° 0 mm 6 mps 753 mmHg 78%
    21:00 -13°C° 0 mm 5 mps 754 mmHg 78%
    22:00 -13°C° 0 mm 5 mps 754 mmHg 77%
    23:00 -14°C° 0 mm 5 mps 754 mmHg 77%

    23 February, Saturday

    Time Temperature Precipitation Wind Pressure Humidity
    00:00 -14°C° 0 mm 5 mps 755 mmHg 78%
    01:00 -15°C° 0 mm 5 mps 755 mmHg 79%
    02:00 -15°C° 0 mm 4 mps 756 mmHg 80%
    03:00 -15°C° 0 mm 4 mps 756 mmHg 81%
    04:00 -15°C° 0 mm 4 mps 756 mmHg 82%
    05:00 -16°C° 0 mm 4 mps 756 mmHg 84%
    06:00 -16°C° 0 mm 4 mps 756 mmHg 84%
    07:00 -16°C° 0 mm 4 mps 757 mmHg 85%
    08:00 -15°C° 0 mm 3 mps 757 mmHg 86%
    09:00 -15°C° 0 mm 4 mps 757 mmHg 84%
    10:00 -14°C° 0 mm 4 mps 757 mmHg 82%
    11:00 -12°C° 0 mm 4 mps 757 mmHg 80%
    12:00 -12°C° 0 mm 4 mps 757 mmHg 77%
    13:00 -11°C° 0 mm 4 mps 757 mmHg 74%
    14:00 -10°C° 0 mm 4 mps 757 mmHg 71%
    15:00 -9°C° 0 mm 3 mps 757 mmHg 74%
    16:00 -10°C° 0 mm 3 mps 757 mmHg 76%
    17:00 -10°C° 0 mm 3 mps 757 mmHg 79%
    18:00 -9°C° 0 mm 2 mps 757 mmHg 80%
    19:00 -10°C° 0 mm 2 mps 758 mmHg 81%
    20:00 -10°C° 0 mm 2 mps 758 mmHg 82%
    21:00 -10°C° 0 mm 2 mps 758 mmHg 83%
    22:00 -10°C° 0 mm 2 mps 758 mmHg 84%
    23:00 -9°C° 0 mm 1 mps 758 mmHg 85%

    24 February, Sunday

    Time Temperature Precipitation Wind Pressure Humidity
    00:00 -9°C° 0 mm 1 mps 758 mmHg 85%
    01:00 -10°C° 0 mm 1 mps 759 mmHg 85%
    02:00 -10°C° 0 mm 1 mps 759 mmHg 84%
    03:00 -10°C° 0 mm 1 mps 759 mmHg 83%
    04:00 -10°C° 0 mm 1 mps 759 mmHg 83%
    05:00 -10°C° 0 mm 1 mps 759 mmHg 82%
    06:00 -10°C° 0 mm 1 mps 759 mmHg 81%
    07:00 -10°C° 0 mm 1 mps 759 mmHg 80%
    08:00 -9°C° 0 mm 1 mps 759 mmHg 79%
    09:00 -8°C° 0 mm 1 mps 759 mmHg 76%
    10:00 -7°C° 0 mm 1 mps 759 mmHg 74%
    11:00 -4°C° 0 mm 1 mps 760 mmHg 71%
    12:00 -6°C° 0 mm 2 mps 759 mmHg 74%
    13:00 -5°C° 0 mm 2 mps 759 mmHg 77%
    14:00 -4°C° 0 mm 2 mps 759 mmHg 80%
    15:00 -5°C° 0 mm 2 mps 758 mmHg 83%
    16:00 -5°C° 0 mm 2 mps 758 mmHg 86%
    17:00 -6°C° 0 mm 2 mps 758 mmHg 89%
    18:00 -6°C° 0 mm 2 mps 758 mmHg 90%
    19:00 -6°C° 0 mm 2 mps 757 mmHg 91%
    20:00 -6°C° 0 mm 2 mps 757 mmHg 92%
    21:00 -7°C° 0 mm 3 mps 757 mmHg 93%
    22:00 -7°C° 0 mm 3 mps 757 mmHg 93%
    23:00 -6°C° 0 mm 3 mps 756 mmHg 93%
    Show more